Weather in Radekhiv

Ukraine / Lviv District     50°16′41″N   24°38′42″E
temp.,
°C
wind,
m/s
gust,
m/s
humid.,
%
clouds,
%
prec.,
mm/h
press.,
hPa
HPBL,
m
31 july, sat
sat3100:00+19sw36730 0.0 101093
03:00+18ssw347530 0.0 101056
06:00+17sw23860 0.0 100937
09:00+23sw336798 0.0 1010218
12:00+28ssw344927 0.0 1009998
15:00+30sw454138 0.0 10081956
18:00+29ssw4548100 0.0 1007862
21:00+18nw91295100 6.1 1009349
1 august, sun
sun100:00+18e1396100 12.0 1010133
03:00+17wsw249785 12.0 1011122
06:00+16w229816 0.0 101143
09:00+20w22820 0.0 1011289
12:00+25ssw22614 0.0 1011836
15:00+28s4548100 0.0 10091308
18:00+28se585231 0.0 1006839
21:00+23sse41266100 0.1 1005345
2 august, mon
mon200:00+19s388156 0.5 1005146
03:00+18s339473 0.6 100655
06:00+16wsw4109712 0.0 1006247
09:00+17wnw6987100 0.0 1008634
12:00+18wnw5785100 0.2 1010675
15:00+17w4882100 0.4 1011639
18:00+18wnw477593 0.0 1011676
21:00+15wsw37925 0.0 1012182
3 august, tue
tue300:00+14w3796100 0.0 1013161
03:00+13wsw349587 0.0 101490
06:00+14wsw35906 0.0 1015138
09:00+17w46745 0.0 1016416
12:00+21w455916 0.1 10161420
15:00+22w466019 1.3 10151481
18:00+23nw355588 0.4 10151005
21:00+17ne11770 0.6 101511
4 august, wed
wed400:00+16sse338515 0.0 101645
03:00+15sse337996 0.0 101632
06:00+14sse358844 0.4 101569
09:00+19sse487436 0.5 1015354
12:00+25sw4550100 0.0 1014971
15:00+27sw464253 0.0 10141924
18:00+27ssw2351100 0.0 10131240
21:00+19s1268100 0.5 101315